Find Starlink 1152

NORAD ID: 45096 Int'l Des: 2020-006 Owner: SPXS Country: US Constellation: starlink operational
LEOCIRCULAR

Live Position

Loading 3D Globe...

About Starlink 1152

Description loading...

Upcoming Passes

Passes for default location (London). Set your location on the main map for personalized predictions.

Altitude History

Loading altitude history...

Two-Line Element Set

1 45096U 20006BE 26104.53274294 .00024869 00000-0 56586-3 0 9993
2 45096 53.0388 36.8153 0002748 40.2151 319.9056 15.42848730343110
Epoch: Apr 14, 2026 • Age: 19 hours

Current Status

Altitude 441.8 km
Velocity 7.65 km/s
Sub-Earth Point -9.47°S, 107.41°W
Launch Date Jan 29, 2020
Age 6.2 years
Type internet

Technical Details

Classification Payload
Mass 260.00 kg
Dry Mass 248.00 kg
Total Mass 260.00 kg
Length 0.20 m
Diameter 2.80 m
Span 9.00 m
Shape Box + pan
Manufacturer SPXS
Bus Type Starlink
Phase Status In Orbit
Owner/State SPXS/US

Most Searched